Temp
-1 -2 -3 -4 -5 -6 -6 -6 -7 -7 -7 -7 -7 -7 -7 -8 -8 -8 -8 -9 -9 -10 -10 -10 -10 -10 -10 -11 -11 -11 -11 -11 -11 -11 -11 -11 -11 -11 -11 -11 -11 -11 -11 -10 -10 -10 -10 -10 -10 -11 -11 -11 -11 -11 -11 -12 -12 -12 -13 -13 -12 -12 -12
-2 -2 -3 -3 -5 -5 -6 -6 -7 -7 -7 -7 -7 -8 -8 -8 -8 -9 -9 -9 -9 -10 -10 -10 -11 -11 -11 -11 -12 -12 -12 -12 -12 -12 -12 -12 -12 -12 -11 -12 -12 -12 -12 -11 -11 -11 -11 -11 -11 -11 -11 -11 -11 -11 -12 -12 -12 -12 -13 -13 -13 -12 -12
-2 -2 -3 -4 -4 -5 -6 -6 -7 -7 -7 -8 -8 -8 -8 -9 -9 -9 -9 -9 -10 -10 -10 -11 -11 -12 -12 -12 -12 -13 -13 -13 -13 -13 -13 -13 -12 -12 -12 -12 -12 -12 -12 -12 -12 -12 -11 -11 -11 -11 -11 -12 -12 -12 -12 -12 -12 -13 -13 -13 -13 -13 -13
-2 -3 -3 -4 -5 -5 -6 -6 -7 -7 -7 -8 -8 -8 -8 -9 -9 -9 -10 -10 -10 -10 -11 -11 -12 -12 -12 -12 -13 -13 -13 -14 -14 -14 -14 -14 -13 -13 -13 -13 -13 -13 -13 -13 -13 -13 -13 -12 -12 -12 -12 -12 -13 -13 -13 -13 -13 -13 -13 -13 -13 -13 -13
-3 -3 -3 -4 -5 -5 -6 -6 -7 -7 -7 -8 -8 -8 -8 -9 -9 -9 -10 -10 -10 -10 -11 -11 -12 -12 -12 -12 -13 -14 -14 -14 -14 -14 -15 -15 -14 -14 -14 -14 -14 -14 -13 -14 -14 -14 -14 -14 -13 -13 -13 -13 -13 -13 -13 -13 -13 -14 -14 -14 -14 -14 -14
-3 -4 -4 -4 -4 -5 -6 -6 -7 -7 -7 -7 -8 -8 -8 -9 -9 -9 -10 -10 -10 -10 -11 -11 -12 -12 -12 -13 -13 -14 -14 -14 -15 -15 -15 -16 -15 -15 -15 -15 -15 -15 -15 -15 -15 -15 -15 -15 -14 -14 -14 -14 -14 -13 -13 -13 -13 -14 -14 -14 -14 -14 -14
-4 -4 -4 -4 -5 -5 -6 -6 -7 -7 -7 -7 -8 -8 -8 -9 -9 -9 -10 -10 -10 -11 -11 -11 -12 -12 -12 -13 -13 -14 -14 -15 -15 -15 -16 -16 -16 -16 -16 -16 -15 -15 -16 -16 -16 -15 -15 -15 -15 -14 -14 -14 -14 -14 -14 -14 -14 -14 -14 -14 -14 -14 -14
-4 -4 -4 -5 -5 -5 -6 -6 -6 -7 -7 -7 -8 -8 -8 -9 -9 -10 -10 -10 -11 -11 -11 -12 -12 -12 -13 -13 -13 -14 -14 -15 -15 -16 -16 -16 -16 -16 -16 -16 -16 -16 -16 -16 -16 -15 -15 -15 -15 -15 -14 -14 -14 -14 -14 -14 -14 -14 -14 -14 -14 -14 -14
-5 -5 -5 -5 -5 -5 -6 -6 -6 -7 -7 -7 -7 -8 -8 -9 -9 -10 -10 -11 -11 -11 -12 -12 -12 -13 -13 -13 -14 -14 -15 -15 -15 -16 -16 -16 -16 -16 -16 -16 -16 -16 -16 -15 -15 -15 -15 -15 -15 -14 -14 -14 -14 -14 -14 -14 -14 -14 -14 -14 -14 -14 -14
-5 -5 -5 -5 -6 -6 -6 -6 -6 -6 -7 -7 -7 -8 -8 -9 -9 -10 -10 -11 -11 -12 -12 -12 -13 -13 -13 -14 -14 -15 -15 -15 -15 -16 -16 -16 -16 -16 -16 -16 -16 -16 -16 -15 -15 -15 -15 -15 -15 -14 -14 -14 -14 -14 -15 -15 -15 -15 -15 -15 -14 -15 -15
-6 -6 -6 -6 -6 -6 -6 -6 -6 -7 -7 -7 -8 -8 -9 -9 -10 -10 -11 -11 -12 -12 -13 -13 -13 -13 -14 -14 -15 -15 -15 -15 -15 -16 -16 -16 -16 -16 -16 -16 -16 -16 -16 -16 -15 -15 -15 -15 -15 -15 -15 -15 -15 -15 -15 -15 -15 -15 -15 -15 -15 -15 -15
-6 -7 -7 -7 -7 -7 -7 -7 -7 -7 -7 -8 -8 -9 -9 -10 -10 -11 -11 -12 -12 -13 -13 -13 -14 -14 -14 -14 -15 -15 -15 -15 -15 -15 -16 -16 -16 -16 -16 -16 -16 -16 -16 -16 -16 -15 -15 -15 -15 -15 -15 -15 -15 -15 -15 -15 -15 -15 -15 -15 -15 -15 -15
-7 -7 -8 -8 -8 -8 -7 -7 -7 -8 -8 -9 -9 -10 -10 -10 -11 -11 -12 -12 -13 -13 -13 -14 -14 -14 -15 -15 -15 -15 -15 -15 -15 -15 -16 -16 -16 -16 -16 -16 -16 -16 -16 -16 -16 -16 -16 -16 -16 -16 -16 -16 -16 -16 -16 -16 -16 -16 -16 -16 -16 -16 -16
-8 -8 -9 -9 -9 -8 -8 -7 -7 -8 -9 -9 -10 -10 -11 -11 -11 -12 -12 -12 -13 -13 -13 -14 -14 -15 -15 -15 -15 -15 -15 -15 -15 -15 -16 -16 -16 -16 -16 -16 -16 -16 -16 -16 -16 -16 -16 -16 -16 -16 -16 -16 -16 -16 -16 -16 -16 -16 -16 -16 -16 -17 -17
-9 -9 -9 -9 -9 -8 -8 -8 -8 -9 -9 -10 -10 -10 -11 -11 -12 -12 -12 -13 -13 -13 -13 -14 -14 -15 -15 -15 -15 -15 -16 -15 -16 -16 -16 -16 -16 -16 -17 -17 -17 -17 -16 -17 -17 -17 -17 -17 -17 -17 -17 -16 -16 -16 -16 -17 -17 -17 -17 -17 -17 -17 -17
-10 -10 -10 -10 -9 -9 -8 -8 -9 -9 -10 -10 -10 -10 -10 -11 -12 -13 -13 -13 -14 -14 -14 -14 -15 -15 -15 -15 -15 -15 -16 -16 -16 -16 -16 -17 -17 -17 -17 -17 -17 -17 -17 -17 -17 -17 -17 -17 -17 -16 -16 -16 -16 -16 -16 -17 -17 -17 -17 -18 -18 -17 -17
-10 -10 -10 -9 -9 -9 -9 -9 -9 -10 -11 -11 -11 -10 -11 -11 -12 -13 -13 -14 -14 -14 -14 -15 -15 -15 -15 -16 -16 -16 -16 -16 -16 -17 -17 -17 -18 -18 -17 -17 -17 -17 -17 -17 -17 -16 -16 -16 -16 -16 -16 -16 -16 -17 -17 -17 -17 -17 -17 -17 -17 -17 -16
-10 -10 -10 -9 -9 -9 -9 -10 -10 -10 -11 -11 -11 -11 -11 -12 -13 -13 -14 -14 -14 -15 -15 -15 -15 -15 -16 -16 -16 -16 -17 -17 -16 -17 -17 -17 -18 -18 -18 -18 -18 -17 -17 -17 -17 -17 -17 -17 -17 -17 -17 -17 -17 -17 -17 -17 -17 -17 -17 -17 -17 -17 -17
-10 -10 -10 -10 -10 -10 -10 -11 -11 -11 -12 -12 -12 -11 -12 -13 -13 -14 -14 -14 -15 -15 -16 -16 -16 -16 -16 -17 -17 -17 -17 -17 -17 -17 -17 -17 -17 -17 -17 -18 -17 -17 -17 -17 -17 -17 -17 -17 -17 -17 -17 -17 -17 -17 -17 -18 -18 -18 -19 -18 -18 -17 -18
-11 -11 -11 -11 -11 -11 -11 -11 -12 -12 -12 -12 -12 -12 -12 -13 -14 -14 -15 -15 -15 -15 -16 -16 -16 -17 -17 -17 -17 -17 -17 -17 -16 -17 -17 -17 -17 -17 -17 -17 -17 -17 -17 -17 -17 -17 -17 -17 -17 -17 -18 -17 -17 -18 -18 -18 -19 -19 -20 -20 -19 -19 -19
-12 -12 -12 -12 -12 -12 -12 -12 -12 -12 -12 -13 -13 -13 -13 -14 -14 -15 -15 -15 -15 -16 -16 -16 -17 -17 -17 -18 -18 -18 -17 -17 -16 -16 -16 -16 -17 -16 -16 -16 -16 -16 -16 -17 -17 -17 -18 -18 -18 -18 -18 -18 -18 -18 -19 -19 -20 -20 -20 -21 -20 -20 -20
-13 -13 -14 -13 -13 -13 -13 -12 -13 -13 -13 -13 -14 -14 -13 -14 -14 -15 -15 -16 -16 -16 -16 -16 -17 -17 -17 -18 -18 -18 -17 -17 -17 -16 -16 -16 -16 -16 -16 -16 -16 -16 -17 -17 -18 -18 -18 -18 -19 -19 -19 -19 -19 -19 -20 -20 -21 -21 -21 -21 -21 -21 -21
-14 -14 -14 -15 -14 -14 -13 -13 -13 -13 -14 -14 -14 -14 -14 -14 -15 -15 -15 -16 -16 -16 -16 -17 -17 -17 -18 -18 -18 -18 -17 -17 -17 -16 -16 -16 -16 -16 -16 -16 -17 -17 -18 -18 -19 -19 -19 -19 -19 -19 -20 -20 -21 -21 -21 -21 -21 -22 -22 -22 -22 -22 -22
-15 -15 -15 -15 -15 -15 -14 -14 -14 -14 -14 -14 -15 -15 -15 -15 -16 -16 -16 -16 -16 -16 -17 -17 -17 -17 -18 -18 -18 -18 -17 -17 -17 -16 -16 -16 -16 -16 -16 -17 -17 -18 -19 -19 -19 -19 -19 -19 -19 -20 -20 -21 -21 -22 -22 -22 -22 -22 -23 -23 -23 -23 -23
-15 -15 -15 -15 -15 -16 -15 -15 -15 -15 -15 -15 -15 -15 -16 -16 -16 -17 -17 -17 -17 -17 -17 -17 -17 -18 -18 -18 -18 -18 -17 -17 -17 -17 -17 -16 -16 -17 -17 -18 -18 -19 -19 -19 -19 -19 -19 -19 -20 -21 -21 -21 -22 -22 -22 -22 -23 -23 -23 -23 -24 -23 -24
-15 -15 -15 -15 -15 -15 -16 -16 -15 -15 -15 -15 -15 -16 -16 -16 -17 -17 -17 -18 -18 -18 -18 -18 -18 -18 -19 -19 -19 -18 -18 -18 -18 -18 -17 -17 -17 -18 -18 -18 -19 -19 -19 -19 -19 -19 -20 -20 -21 -21 -21 -21 -22 -22 -23 -24 -24 -24 -25 -24 -24 -25 -25
-15 -15 -16 -15 -15 -16 -16 -16 -16 -16 -15 -15 -16 -16 -16 -17 -17 -18 -18 -19 -19 -19 -19 -19 -19 -19 -19 -19 -19 -19 -19 -19 -19 -18 -18 -18 -19 -19 -19 -19 -19 -19 -19 -19 -19 -20 -20 -21 -21 -21 -22 -22 -23 -23 -24 -25 -25 -25 -25 -25 -25 -25 -25
-15 -15 -16 -16 -16 -16 -16 -17 -17 -16 -15 -16 -16 -16 -17 -17 -18 -18 -19 -20 -20 -20 -20 -20 -19 -20 -20 -20 -20 -20 -20 -20 -19 -19 -19 -19 -19 -19 -19 -19 -19 -20 -20 -20 -20 -20 -21 -21 -21 -21 -22 -23 -24 -24 -25 -25 -25 -26 -26 -26 -26 -26 -25
-15 -15 -15 -16 -16 -16 -16 -17 -16 -16 -15 -16 -16 -17 -18 -18 -18 -19 -19 -19 -20 -20 -20 -20 -20 -20 -20 -20 -20 -20 -20 -20 -20 -20 -19 -19 -19 -20 -20 -20 -20 -20 -21 -20 -20 -21 -21 -21 -22 -22 -23 -24 -24 -25 -25 -26 -26 -26 -26 -26 -26 -26 -25
-16 -16 -16 -16 -16 -16 -16 -16 -16 -16 -16 -17 -17 -18 -18 -18 -18 -19 -19 -19 -20 -20 -21 -20 -20 -20 -20 -20 -20 -20 -20 -20 -20 -20 -20 -20 -20 -20 -20 -20 -20 -21 -21 -20 -20 -21 -21 -22 -22 -23 -23 -24 -25 -25 -25 -26 -26 -26 -27 -27 -26 -25 -25
-16 -16 -16 -16 -16 -17 -16 -16 -16 -17 -17 -18 -18 -19 -19 -19 -19 -19 -19 -19 -20 -21 -21 -20 -20 -20 -20 -20 -20 -20 -19 -19 -19 -20 -20 -20 -20 -20 -20 -20 -20 -20 -20 -20 -21 -21 -21 -22 -23 -23 -24 -24 -25 -25 -25 -26 -26 -26 -27 -27 -26 -26 -25
-16 -17 -17 -17 -17 -17 -17 -17 -17 -17 -18 -18 -19 -19 -19 -19 -19 -19 -20 -20 -20 -21 -20 -20 -20 -20 -20 -20 -20 -20 -20 -19 -19 -19 -19 -20 -20 -20 -20 -20 -20 -20 -20 -20 -21 -21 -22 -22 -23 -23 -24 -25 -25 -26 -26 -26 -26 -26 -26 -26 -26 -26 -26
-17 -17 -17 -17 -17 -17 -17 -17 -17 -18 -18 -18 -19 -19 -19 -19 -19 -19 -19 -19 -20 -20 -20 -19 -19 -19 -19 -20 -20 -20 -20 -20 -20 -20 -20 -20 -20 -20 -20 -20 -20 -20 -20 -21 -21 -21 -22 -22 -23 -23 -24 -25 -25 -26 -26 -26 -26 -26 -26 -26 -26 -26 -26
-17 -17 -18 -18 -18 -17 -17 -18 -18 -18 -18 -18 -19 -19 -19 -19 -19 -19 -19 -18 -19 -19 -19 -19 -19 -19 -20 -20 -20 -20 -20 -20 -20 -20 -20 -20 -20 -20 -20 -20 -20 -20 -21 -21 -21 -22 -22 -22 -23 -23 -24 -25 -26 -26 -26 -26 -26 -26 -26 -26 -26 -26 -26
-17 -18 -18 -18 -18 -18 -18 -18 -18 -18 -18 -18 -18 -19 -19 -19 -19 -18 -18 -18 -18 -18 -19 -19 -19 -19 -20 -20 -20 -20 -20 -20 -20 -20 -20 -20 -20 -20 -20 -20 -21 -21 -21 -21 -21 -22 -22 -22 -23 -23 -24 -25 -25 -26 -26 -26 -26 -26 -26 -26 -26 -26 -26
-18 -19 -19 -19 -19 -19 -19 -19 -19 -19 -19 -19 -19 -19 -19 -19 -18 -18 -18 -18 -18 -18 -19 -19 -19 -19 -20 -20 -20 -20 -20 -20 -20 -20 -20 -20 -20 -20 -21 -21 -21 -21 -21 -21 -22 -22 -22 -22 -23 -23 -24 -25 -26 -26 -26 -26 -26 -26 -27 -27 -27 -27 -27
Height
793 794 795 797 799 801 803 805 806 807 808 810 811 812 814 815 816 818 819 820 821 822 823 824 825 825 826 827 828 829 829 829 829 828 828 827 826 826 825 825 824 821 817 817 818 817 816 816 815 815 814 814 813 812 811 810 809 807 805 804 802 800 799
788 789 790 792 794 796 798 800 801 803 804 805 806 808 809 810 812 814 815 817 818 819 820 820 821 822 823 824 825 826 827 827 827 827 825 825 824 823 823 822 822 820 817 815 815 815 814 814 813 812 811 811 810 809 808 807 806 805 803 802 800 798 797
783 784 786 788 789 791 794 796 797 798 799 800 801 803 804 806 807 809 811 812 814 815 817 817 818 819 820 821 821 822 823 824 824 824 823 822 822 821 820 820 820 818 816 814 813 813 812 811 811 810 809 809 808 807 806 805 804 803 801 799 798 797 795
779 780 782 783 784 786 788 791 793 794 795 796 797 798 800 801 803 804 806 808 809 811 812 813 814 815 816 817 818 819 820 821 821 821 821 820 819 818 818 817 817 816 815 813 811 811 810 809 809 808 807 807 806 805 804 802 801 800 798 797 796 795 793
775 776 777 778 779 781 783 786 788 789 790 792 793 794 796 797 798 800 802 803 805 806 808 809 810 811 813 813 814 815 816 817 817 818 818 817 816 816 815 815 815 814 813 812 810 809 808 808 807 806 805 805 803 802 801 800 798 797 796 795 794 793 791
769 770 771 772 774 776 778 781 784 785 786 788 790 791 792 793 794 796 798 799 800 802 803 805 806 808 809 810 810 811 812 813 814 814 814 814 813 813 813 813 813 812 811 810 809 808 807 806 805 804 803 802 802 800 799 797 796 795 794 793 792 790 789
764 765 766 768 770 772 774 777 779 781 783 785 787 788 789 790 791 793 794 796 796 798 799 801 803 804 805 806 807 808 809 809 810 811 811 811 811 811 811 811 810 810 809 808 807 806 805 804 803 802 800 800 799 798 797 796 794 793 792 791 790 788 787
760 761 763 764 766 768 770 772 775 777 779 781 783 785 786 787 788 790 791 792 793 794 796 797 799 800 801 802 803 804 805 806 807 808 808 808 808 808 808 808 808 807 806 805 804 803 803 801 800 800 798 797 797 796 794 794 793 791 790 789 788 787 786
756 757 759 760 762 764 766 768 770 773 775 778 779 781 784 785 786 787 788 789 790 791 792 794 795 796 797 799 800 800 801 802 803 804 805 805 805 805 805 805 805 804 803 803 802 801 800 799 798 797 796 795 795 793 792 792 791 790 788 787 786 784 783
752 753 755 756 758 760 763 765 767 770 773 776 777 779 781 782 783 784 785 786 788 788 789 790 791 792 794 795 796 797 798 799 800 800 801 802 802 802 802 802 802 801 801 800 799 798 797 796 795 794 794 793 792 792 791 791 790 788 787 785 783 781 780
748 750 752 754 755 757 760 762 765 769 772 774 776 777 778 779 780 781 782 784 785 786 787 788 788 789 790 792 792 793 794 795 796 796 797 798 798 798 798 799 799 798 798 797 796 795 794 793 792 791 792 791 791 791 790 789 788 787 785 784 781 778 778
745 747 749 751 753 755 757 760 764 767 770 772 774 775 775 776 777 778 779 780 782 783 784 785 786 786 787 788 789 790 790 791 792 792 793 794 794 794 795 795 795 795 795 794 793 792 792 791 790 789 790 790 789 789 788 787 786 785 783 782 780 777 776
742 744 746 749 751 753 755 758 762 765 767 769 772 773 773 774 774 775 776 777 779 780 781 782 783 784 783 783 785 786 787 787 788 789 789 790 790 791 791 791 791 791 791 791 791 789 788 788 788 787 787 788 787 787 786 785 783 783 781 779 778 776 775
740 742 744 746 748 751 753 757 759 762 765 766 769 770 771 771 772 772 773 774 775 777 778 779 780 781 780 780 781 782 782 783 784 785 785 786 786 786 787 787 787 787 788 788 788 786 785 786 786 785 784 785 785 784 783 782 781 780 779 777 776 774 773
739 741 742 745 747 749 752 755 757 760 762 764 766 768 768 769 769 769 770 771 772 773 774 776 777 777 777 778 778 778 778 779 780 781 781 782 782 782 782 782 783 784 784 784 784 783 782 782 783 782 782 782 782 781 780 779 778 777 776 775 773 772 770
738 740 742 744 746 748 750 752 754 757 759 761 763 765 766 767 766 766 767 768 769 770 771 772 773 773 774 774 774 774 775 776 777 777 778 778 777 778 778 778 779 779 779 779 779 779 779 779 779 779 779 779 779 778 777 776 775 774 774 773 771 769 767
738 739 741 743 744 746 747 749 752 754 756 759 761 762 764 764 764 764 764 765 766 767 768 768 769 770 770 770 770 771 772 773 774 774 773 773 774 774 774 774 774 775 775 775 775 775 775 775 775 775 776 776 775 775 774 774 773 772 772 770 768 766 764
738 739 740 741 742 744 745 747 749 751 754 756 758 760 761 761 761 761 762 763 764 764 765 765 765 766 766 766 767 767 768 770 771 770 770 770 770 770 770 770 770 770 771 771 772 772 772 772 772 772 772 772 772 772 772 772 771 770 770 768 766 764 762
737 737 738 739 740 742 743 745 747 749 751 753 755 757 758 758 758 759 760 761 762 762 762 762 762 762 762 762 763 764 765 766 766 766 766 766 766 765 765 766 767 767 767 768 768 768 769 769 769 769 770 770 770 769 769 769 768 768 768 766 764 763 761
736 736 737 738 739 740 742 743 745 747 749 751 753 755 755 756 756 756 757 758 759 759 759 759 758 758 758 758 759 760 761 762 762 762 762 763 763 761 761 763 763 763 764 764 765 765 766 766 766 767 767 767 767 767 766 766 765 765 765 764 762 762 760
735 735 736 737 737 739 740 741 743 745 747 749 750 752 753 753 753 754 755 755 756 756 756 755 755 755 754 755 755 756 757 757 758 758 758 758 758 758 759 760 760 760 760 761 762 762 763 764 764 764 764 764 764 763 762 762 762 761 762 761 760 760 758
734 734 735 735 736 737 738 739 741 742 744 746 748 749 751 751 751 752 752 752 752 752 752 752 752 752 752 752 752 753 754 754 754 755 754 754 754 754 755 756 756 756 758 759 759 760 761 762 762 762 762 761 761 760 759 759 758 758 758 757 757 757 755
732 733 733 734 734 735 736 737 738 740 741 743 745 746 747 748 749 749 750 749 749 748 749 749 749 749 749 749 750 750 750 751 751 751 751 751 751 751 751 752 753 754 755 756 757 758 759 759 759 759 759 759 758 757 756 755 755 754 754 754 753 753 752
730 731 731 732 732 733 733 734 736 737 739 740 742 743 744 745 746 746 747 746 746 745 745 745 746 746 746 747 747 748 748 748 748 748 747 747 747 747 748 749 750 752 753 754 755 756 757 757 757 756 756 756 755 754 753 752 752 751 751 750 749 749 748
728 729 729 730 730 731 731 732 733 735 736 737 739 740 741 741 742 743 743 743 743 742 742 742 743 743 744 744 745 745 745 745 745 744 744 743 744 745 746 747 749 750 751 752 753 754 754 754 754 753 753 752 752 751 750 749 749 748 747 747 746 745 744
726 726 727 727 728 728 729 730 731 732 733 735 735 736 737 738 738 739 739 739 740 740 739 739 739 740 741 742 742 743 743 743 742 742 742 741 741 742 744 745 746 748 749 750 751 751 751 752 751 750 750 749 749 748 747 747 746 745 745 744 743 742 741
724 724 724 725 725 726 727 728 728 729 730 731 732 733 733 734 734 735 735 735 735 736 736 736 737 738 738 739 740 740 740 740 740 741 741 740 740 741 742 743 744 746 747 748 748 749 749 749 748 748 747 747 746 745 745 744 744 744 743 743 742 740 739
720 721 721 722 723 723 724 725 725 726 727 728 729 729 729 730 730 730 731 731 731 732 733 733 734 736 736 737 737 737 737 737 738 738 739 739 739 740 740 742 742 743 744 745 746 746 746 746 746 745 745 744 744 743 743 742 742 741 741 741 740 739 737
718 718 718 719 720 720 721 722 722 723 724 725 725 726 726 726 726 726 726 727 728 729 730 731 732 733 733 734 734 734 734 734 735 735 736 736 737 738 739 739 740 741 742 742 743 743 743 743 743 743 743 742 742 741 741 740 740 740 739 739 738 737 735
716 716 716 717 717 717 718 719 719 720 721 722 722 722 722 722 723 723 723 724 725 727 728 729 730 730 730 730 730 730 731 731 732 732 733 734 735 736 736 737 738 738 739 739 740 741 741 741 741 741 741 740 740 739 739 738 738 738 737 737 736 735 733
713 713 714 714 714 714 715 716 716 717 718 718 719 719 719 719 720 720 721 722 723 725 726 726 727 727 727 727 727 727 728 728 729 730 730 731 732 733 733 734 735 736 737 737 738 738 739 739 739 739 739 739 738 738 737 737 736 736 735 735 734 733 732
710 711 711 711 712 712 712 713 713 714 715 715 716 716 717 717 717 718 719 720 721 722 722 723 723 723 723 724 724 724 725 725 726 727 727 729 729 730 730 731 732 733 734 734 735 736 736 736 737 737 737 736 736 736 736 735 735 734 733 733 732 731 730
708 709 709 709 710 710 710 710 711 711 712 712 713 713 714 715 715 716 717 718 718 719 719 720 720 720 720 721 721 722 722 723 723 724 725 726 726 727 728 728 729 730 731 732 733 733 733 734 734 734 734 734 734 734 734 733 733 732 732 731 730 729 728
706 706 706 707 707 708 708 708 708 708 709 709 710 711 712 712 713 714 714 715 715 715 715 716 716 717 717 718 718 719 720 720 721 721 722 723 723 724 725 725 726 727 728 729 730 730 731 731 732 732 732 732 732 732 731 731 731 730 730 729 729 727 727
704 704 704 704 704 705 705 705 706 706 706 706 707 708 709 710 710 710 710 711 711 711 711 712 713 714 714 715 716 716 717 717 718 718 719 719 720 721 722 722 723 724 725 726 727 727 728 729 729 729 730 730 730 730 729 729 729 728 728 728 727 726 725
703 702 702 702 701 702 702 702 702 703 703 704 704 705 706 707 706 706 706 707 707 708 708 709 710 711 711 712 713 713 714 714 714 715 715 716 717 718 718 719 720 721 722 723 724 724 725 726 727 727 727 727 727 727 727 727 727 727 726 726 725 725 724
Wind_Speed
43 41 40 38 35 33 31 29 28 26 25 23 22 20 19 18 18 18 16 15 15 14 13 13 13 12 11 10 10 10 10 10 10 11 11 12 13 14 14 14 16 15 15 15 13 13 13 12 13 14 15 16 17 17 17 19 19 19 20 21 20 17 15
45 44 42 40 38 36 34 31 30 28 26 25 24 22 20 20 20 19 18 17 16 16 15 14 14 14 12 12 12 12 11 11 12 11 12 13 13 14 14 14 15 16 16 16 14 14 14 14 14 15 15 15 17 17 17 19 20 20 20 19 18 16 15
47 46 44 42 40 37 34 32 31 30 29 28 26 24 23 22 22 21 20 19 18 17 16 15 15 15 14 13 13 13 13 13 13 13 14 15 15 15 15 14 16 16 16 17 16 14 13 14 14 14 15 15 17 18 18 20 21 21 19 18 17 17 16
47 47 45 43 41 39 36 34 32 31 31 31 30 28 26 26 25 23 22 22 21 20 19 18 18 17 17 16 16 16 15 14 14 15 15 15 15 16 16 15 16 16 17 18 17 14 12 13 14 14 15 16 17 18 18 19 20 19 17 16 16 17 17
47 47 46 45 44 42 38 37 35 34 34 34 33 31 30 29 29 27 26 26 25 24 23 22 21 20 19 19 19 19 18 17 18 18 17 16 15 15 15 15 16 16 17 17 17 15 14 14 15 16 16 15 16 18 18 18 18 16 15 15 15 16 18
48 48 48 47 46 44 41 39 38 36 36 36 34 33 31 31 30 30 29 28 27 26 25 24 23 21 20 20 21 21 20 21 22 22 21 19 18 16 15 15 15 15 15 15 16 16 16 16 16 17 16 15 15 17 17 16 16 15 15 15 15 16 16
48 49 49 48 46 45 43 42 40 39 38 37 36 35 33 32 31 30 30 29 28 26 25 24 23 22 21 21 21 22 22 22 24 24 23 23 22 20 17 15 14 14 14 15 16 16 16 16 16 16 16 15 14 16 17 16 16 15 14 13 14 15 15
48 48 48 48 47 46 45 43 41 40 39 38 37 36 34 33 32 31 30 30 28 27 26 25 23 23 22 22 22 22 22 23 23 23 22 21 21 21 17 14 15 15 14 14 15 15 15 15 15 15 15 14 13 14 15 13 14 15 14 14 16 17 17
47 48 47 47 46 45 45 43 42 41 39 38 37 35 34 33 33 32 31 29 29 28 27 25 24 23 22 21 21 22 22 22 22 22 21 18 18 20 19 16 16 15 14 14 15 14 14 14 14 13 13 13 12 13 14 13 13 15 16 16 18 19 18
45 46 47 46 46 44 43 43 41 39 37 36 35 34 33 33 33 32 31 30 29 28 27 25 24 23 22 21 21 21 22 23 23 23 23 20 17 17 17 16 16 16 15 14 14 15 14 14 14 14 13 13 12 13 14 14 15 17 18 19 20 19 18
42 44 45 45 44 43 42 41 39 37 35 34 33 33 32 33 32 32 31 30 29 28 26 24 23 23 22 21 21 22 23 24 24 24 25 24 21 19 17 17 17 17 16 15 15 16 15 15 15 14 13 13 14 14 15 16 17 19 20 19 18 17 15
40 41 42 42 41 40 40 39 36 34 33 33 32 32 32 32 31 31 31 30 29 27 24 23 23 23 24 23 22 23 23 24 25 25 25 25 23 23 22 21 20 19 18 17 17 17 17 17 17 15 14 14 15 16 17 18 19 19 19 18 17 17 16
37 38 39 39 38 38 37 36 34 32 32 31 29 28 30 31 31 30 30 29 28 25 24 23 19 17 20 22 23 23 24 24 24 25 26 24 22 22 23 23 24 23 21 19 19 20 20 18 16 16 16 15 16 18 18 19 20 19 19 18 17 16 15
33 34 35 36 36 35 34 32 31 30 30 29 25 24 26 29 30 29 29 28 27 25 25 25 20 15 15 17 20 22 24 24 25 25 25 25 24 23 24 24 26 26 25 24 23 23 22 19 17 19 20 18 19 22 21 20 20 18 18 18 17 17 19
31 32 32 33 32 32 30 29 29 29 28 26 24 23 23 24 25 27 28 28 28 27 26 25 21 18 16 16 17 21 23 24 25 25 24 25 27 27 26 27 27 28 29 30 29 27 26 25 25 26 25 23 23 25 24 21 20 20 21 21 20 20 22
28 29 30 30 29 28 29 29 29 29 27 24 23 22 20 18 19 20 21 22 23 23 22 21 20 20 20 21 21 24 24 23 23 24 25 25 26 27 27 28 29 29 30 30 30 29 28 28 27 26 23 21 19 19 17 15 16 17 17 17 17 18 19
25 27 27 28 28 27 29 29 28 27 25 23 22 21 18 15 15 15 16 17 19 20 19 21 24 25 25 24 24 25 25 22 21 22 24 25 25 25 27 27 28 29 28 26 25 25 23 22 21 20 19 17 16 16 13 10 11 11 10 11 12 14 18
24 25 26 26 27 27 28 29 27 25 24 22 22 21 18 15 15 15 15 16 17 18 18 20 25 27 28 27 27 27 25 23 22 23 23 24 24 25 25 24 24 26 25 23 23 22 20 19 19 19 19 19 18 19 17 15 15 13 11 13 14 14 17
23 24 24 25 26 26 26 26 24 24 23 22 21 20 18 15 13 13 12 13 14 14 13 15 18 23 28 29 29 27 25 23 24 23 22 22 22 23 23 22 21 23 23 21 21 21 21 21 22 20 20 20 20 20 20 20 20 17 13 14 16 15 14
21 22 23 23 24 24 24 24 23 23 23 22 21 20 17 14 12 11 11 12 14 14 14 14 14 17 22 24 24 23 22 22 23 23 22 22 22 23 22 20 20 23 24 22 20 20 21 21 21 20 20 21 22 22 22 21 21 20 15 14 16 16 15
19 20 20 21 22 22 23 23 22 22 22 22 21 20 19 16 13 12 12 13 15 16 16 16 15 15 16 18 19 20 22 23 23 23 23 23 24 24 23 20 19 22 24 24 22 20 19 19 19 20 20 22 22 22 21 20 21 21 19 17 17 16 17
17 16 16 18 21 21 21 22 22 22 22 22 20 20 20 18 14 12 12 13 16 19 19 17 16 14 14 15 17 19 20 22 23 23 23 23 23 24 24 21 20 20 22 21 18 15 13 13 15 16 16 18 19 20 21 21 20 20 20 20 20 18 18
16 13 11 13 18 21 22 22 22 22 22 22 22 21 20 19 17 16 15 14 15 17 18 18 17 16 15 15 16 17 19 21 22 22 22 23 23 24 23 20 19 18 17 14 12 11 10 10 11 12 12 13 14 16 19 21 21 21 21 21 22 22 22
11 11 9 10 14 19 22 23 22 22 22 22 22 22 21 20 20 19 19 18 17 15 16 17 18 17 15 15 15 17 19 20 21 22 22 22 22 20 19 18 17 15 14 11 9 10 10 10 10 11 12 13 14 16 19 20 21 22 22 22 23 24 25
10 10 11 11 12 16 19 21 22 22 22 21 22 23 23 23 24 23 21 21 20 16 14 16 17 16 15 16 16 18 18 17 17 19 20 20 19 19 19 18 16 14 13 11 9 10 10 9 10 12 14 15 16 18 18 18 19 20 20 21 22 23 24
11 11 12 12 11 12 16 19 20 21 22 22 22 23 24 24 25 25 24 24 23 20 16 16 17 16 16 16 17 17 16 15 15 16 15 17 20 20 20 18 15 13 12 11 9 9 9 8 10 13 15 16 16 17 16 16 16 15 15 16 16 16 19
12 11 11 11 12 13 15 18 19 21 21 22 22 23 24 24 24 24 24 23 23 22 20 17 16 17 17 17 17 17 17 17 18 18 17 18 19 18 17 15 14 13 12 11 9 9 9 9 12 15 15 15 16 15 14 14 15 13 12 11 10 12 14
13 13 14 13 12 13 14 16 19 22 22 22 22 23 23 23 23 23 22 21 19 19 19 18 18 17 15 14 15 16 17 19 21 21 20 19 16 15 14 13 13 14 14 13 12 10 11 12 13 14 14 14 15 14 13 13 14 13 11 9 8 10 12
14 16 18 17 15 13 12 13 18 21 21 19 20 21 20 21 22 22 23 22 20 19 19 19 18 16 12 12 13 14 15 17 18 20 22 21 17 15 14 14 14 14 14 15 13 12 13 13 12 13 14 14 14 12 11 11 12 12 10 9 9 10 11
15 15 18 19 18 18 16 15 17 19 19 17 18 19 20 21 21 20 21 21 21 20 17 15 15 14 13 13 14 13 14 14 14 16 18 19 18 17 16 16 16 16 15 15 15 14 13 13 12 12 11 11 11 10 9 10 12 11 9 9 9 10 10
18 17 18 19 19 19 20 20 20 19 19 18 17 17 17 18 18 17 17 17 17 16 13 12 13 13 12 13 14 15 15 15 14 15 15 15 16 18 18 18 18 18 18 18 16 16 15 15 14 13 11 10 10 9 8 8 10 10 10 9 9 10 11
18 17 18 19 19 19 19 20 20 18 17 17 16 16 16 16 16 16 16 17 17 16 13 13 14 13 13 13 14 14 15 14 14 15 15 14 14 17 20 21 20 20 20 19 18 17 17 16 15 14 13 12 11 10 9 8 8 9 9 9 9 10 11
17 17 16 17 18 18 19 19 19 17 16 15 15 15 16 16 16 17 17 18 19 17 16 15 15 14 14 14 14 15 16 16 16 17 17 17 17 17 19 21 22 22 21 20 19 19 18 17 16 15 14 13 13 11 10 9 8 8 8 8 9 10 11
14 15 16 16 16 16 17 18 18 18 18 17 16 16 15 15 16 17 18 20 19 17 16 16 15 13 13 13 13 15 16 17 17 19 21 21 22 22 21 21 22 21 20 20 20 20 19 17 17 16 14 12 10 10 10 10 9 9 8 8 9 9 9
10 11 14 16 16 16 17 17 18 18 19 18 18 18 16 16 17 17 18 20 20 17 14 14 14 13 12 12 12 14 16 17 19 22 24 25 25 25 23 23 22 21 20 20 21 20 19 18 17 17 16 13 10 10 10 9 8 8 8 8 8 9 9
9 10 13 16 16 17 18 18 18 19 18 17 17 18 17 18 18 18 17 18 19 16 13 13 13 12 11 12 12 12 14 17 20 23 25 26 26 25 24 23 23 21 21 21 21 20 19 18 17 17 17 15 13 14 13 11 10 9 8 8 9 9 9
Wind_Direction
217 214 212 210 207 206 206 203 201 201 199 199 201 201 201 200 200 202 205 206 207 206 208 212 214 219 224 229 236 243 246 249 251 252 251 248 247 248 246 245 248 257 268 271 268 269 271 271 275 277 277 279 282 284 286 288 289 292 295 297 298 295 291
217 214 213 210 208 207 207 204 203 202 200 200 200 200 200 200 199 202 205 206 207 208 210 212 215 218 222 228 234 239 244 251 254 255 253 248 247 250 247 244 249 257 267 273 271 268 271 272 273 276 277 279 283 285 287 288 289 291 292 292 293 293 290
218 215 213 211 209 207 207 206 205 204 203 203 201 200 200 201 201 202 204 205 207 208 210 212 213 217 223 228 232 236 242 249 253 254 253 250 248 251 251 249 251 256 264 274 276 271 271 275 275 275 278 280 282 285 286 287 289 289 287 287 288 288 287
219 216 213 211 209 207 207 207 206 206 207 208 207 204 204 207 207 205 205 208 209 211 212 215 218 223 231 235 237 241 245 248 250 251 252 251 249 249 253 253 252 254 261 271 276 274 273 278 280 278 279 281 283 284 283 285 286 284 282 281 281 283 283
218 215 213 212 210 208 208 208 208 208 210 212 212 211 211 214 215 213 213 215 218 220 222 226 229 234 239 242 243 246 249 253 254 253 251 250 248 248 250 251 252 255 260 265 271 275 276 277 279 278 277 277 281 283 283 284 283 280 279 279 279 280 280
218 216 214 213 212 210 210 210 210 211 213 215 215 215 215 218 220 220 220 222 224 227 229 232 236 239 242 245 247 250 254 259 261 259 254 248 247 247 248 250 252 254 257 260 266 273 275 274 275 276 276 274 276 280 283 284 282 279 278 278 279 280 280
219 218 216 215 213 212 211 212 212 214 216 217 218 218 218 220 222 222 223 225 227 229 232 235 238 241 244 247 251 255 259 263 264 260 253 247 248 249 248 248 252 254 255 259 264 267 269 270 270 271 272 273 273 274 276 278 280 282 281 279 280 282 283
222 220 218 216 214 213 213 213 214 215 217 218 220 222 223 223 223 223 224 226 229 230 233 235 238 242 246 250 254 260 264 265 262 255 248 246 247 248 245 244 249 253 253 256 260 262 264 267 267 267 269 271 271 271 272 271 274 281 283 281 282 282 284
224 221 218 216 215 214 214 215 216 217 219 220 222 224 225 225 225 225 226 227 229 231 233 235 239 243 248 253 258 263 266 265 258 248 243 243 244 247 246 244 247 249 251 254 258 261 263 263 264 265 268 271 269 269 273 275 276 281 283 284 285 282 283
225 223 220 217 215 215 215 216 218 220 222 223 225 225 225 226 227 228 229 229 229 230 233 237 241 246 251 256 262 266 266 263 256 248 244 243 243 244 242 241 243 245 247 253 257 259 261 262 265 267 268 269 271 271 275 277 278 282 284 287 288 285 285
226 224 222 220 217 216 216 218 220 223 225 227 228 228 228 228 229 230 230 230 230 231 235 239 244 250 255 260 263 265 264 260 255 251 247 246 246 246 242 239 241 244 246 251 256 259 261 263 266 268 267 269 273 274 274 274 278 284 286 286 286 286 288
227 225 223 220 218 216 216 219 222 224 226 228 229 230 231 230 230 230 229 228 231 233 236 243 249 255 260 263 262 262 261 258 255 251 247 246 248 249 246 241 240 242 244 249 256 260 262 262 264 267 268 271 274 275 276 277 279 282 282 280 278 280 284
227 224 222 219 217 216 217 220 223 224 226 227 226 228 232 232 231 229 229 230 233 236 240 245 248 253 259 261 262 260 257 256 254 251 246 243 244 246 246 244 243 243 245 252 260 264 263 260 260 265 268 269 271 274 276 277 277 278 277 274 273 274 278
224 222 220 218 216 215 217 221 224 225 226 226 221 220 228 234 234 232 233 235 236 239 243 244 243 244 249 255 258 257 255 255 254 251 246 242 242 245 244 243 242 243 248 255 258 259 259 257 257 265 270 272 274 274 272 271 272 274 273 271 271 273 276
223 220 217 216 215 215 218 223 226 227 226 224 219 217 222 230 234 232 233 235 237 238 239 238 238 242 247 251 251 250 252 254 253 249 245 244 246 247 245 243 244 248 255 259 258 256 256 257 260 265 270 272 276 277 275 271 269 270 272 272 273 275 277
221 218 215 214 214 216 221 225 226 227 225 221 219 220 221 225 227 223 222 224 226 228 230 232 236 244 250 251 247 247 250 252 249 245 244 244 245 247 249 252 255 258 260 260 259 257 256 258 261 263 265 267 274 279 278 271 268 270 271 269 270 274 276
218 217 215 215 216 218 223 227 227 227 225 219 219 222 223 225 226 221 218 221 227 231 235 242 248 251 250 248 246 248 250 249 245 245 244 243 245 250 255 258 262 262 258 254 254 256 257 256 254 251 253 260 273 282 282 272 269 273 269 262 266 275 277
217 217 217 219 222 224 227 229 230 228 223 218 220 223 224 226 228 226 227 233 240 243 244 249 254 254 251 248 249 253 254 250 248 247 246 245 246 249 251 255 260 262 258 251 248 249 252 253 248 245 251 261 271 279 281 278 275 276 273 267 268 275 279
216 218 221 224 227 229 230 232 232 229 223 220 222 224 224 226 226 225 228 235 242 244 243 245 250 252 252 253 254 255 255 251 249 248 246 246 246 245 245 247 252 258 259 253 247 246 251 255 255 254 259 267 273 277 279 278 274 271 269 268 270 274 279
222 224 227 230 231 230 231 232 232 230 226 223 223 226 227 227 228 229 229 232 241 246 247 244 245 248 252 253 252 251 250 249 247 245 243 242 243 245 247 245 246 252 256 253 248 248 251 251 253 257 263 271 277 278 278 276 271 266 262 262 268 271 270
231 231 232 234 234 232 232 232 232 232 230 226 225 228 231 233 234 232 229 234 244 249 249 248 247 248 248 248 248 248 248 249 248 245 243 241 239 242 249 246 240 244 250 248 244 243 243 245 252 262 270 276 279 278 276 274 270 266 261 257 261 266 267
234 232 231 233 234 234 234 234 234 233 232 229 227 228 233 238 240 239 236 240 246 249 249 249 249 248 247 249 253 252 247 247 248 247 248 246 244 246 250 243 234 235 239 237 231 230 235 245 257 265 271 275 278 277 276 274 269 266 263 257 256 257 260
234 229 226 229 233 235 235 235 234 233 232 231 230 232 236 242 247 250 251 250 249 248 247 248 249 250 248 250 254 253 248 248 249 249 250 251 251 251 246 235 225 223 220 214 215 225 238 248 254 261 266 269 271 272 274 273 269 266 265 263 261 260 261
225 222 221 221 226 232 235 235 234 234 233 234 237 240 242 246 250 253 256 257 256 251 244 245 250 251 247 249 254 256 254 252 250 250 252 251 248 241 229 216 209 205 202 204 217 231 241 247 250 257 264 267 268 272 276 276 271 268 267 267 267 267 267
217 215 220 220 220 228 234 235 235 236 237 239 244 248 250 252 254 255 255 256 257 254 245 241 241 241 244 251 258 259 257 256 258 261 256 244 231 217 205 198 194 195 203 216 226 231 240 246 250 261 271 276 279 282 282 279 275 273 273 272 273 273 273
224 220 223 224 222 224 230 235 237 239 242 245 248 252 255 257 257 258 257 254 252 251 250 243 235 235 244 252 255 255 253 254 262 262 240 214 203 199 194 193 197 207 217 225 229 232 237 242 255 273 284 288 287 286 283 279 277 278 277 277 278 278 279
226 219 220 224 226 227 231 235 238 241 246 250 253 256 260 261 261 261 258 252 247 245 244 241 240 246 252 254 253 252 249 248 251 243 218 197 194 197 199 206 216 222 223 225 226 231 241 255 272 284 291 291 288 285 280 275 275 275 273 273 275 277 279
227 224 225 225 225 227 230 235 240 245 251 256 259 262 263 264 265 261 254 246 239 235 236 242 250 256 256 252 249 245 240 237 235 229 218 211 211 215 220 226 230 228 226 228 232 242 256 269 280 287 288 285 283 281 276 273 274 273 269 268 271 274 279
236 238 239 237 232 229 227 230 241 252 261 264 263 263 262 263 265 263 255 247 240 237 240 247 252 251 244 239 238 232 228 226 222 220 221 223 227 231 232 232 230 228 229 234 241 251 262 269 276 281 281 279 278 276 269 268 272 271 266 266 268 266 272
245 245 248 248 245 243 242 243 251 262 269 266 262 262 262 264 266 261 254 248 243 240 241 242 242 238 231 229 229 224 220 217 210 211 218 224 228 233 234 234 234 233 233 239 246 253 258 262 268 271 270 269 270 269 262 263 269 268 261 260 265 266 269
253 249 251 253 253 253 255 257 260 265 266 262 258 257 258 261 261 252 243 237 233 230 227 225 229 231 227 224 225 225 223 219 213 212 216 220 227 234 237 239 240 239 239 243 247 251 254 258 262 263 261 259 261 261 259 259 263 263 258 255 259 265 271
258 252 249 252 256 259 261 263 265 266 264 259 254 249 247 248 246 239 233 228 223 218 218 221 225 228 227 222 221 223 224 222 221 223 225 226 230 237 243 244 243 242 243 244 245 247 251 255 259 261 259 258 258 259 258 255 252 254 254 257 260 264 268
257 253 249 248 251 254 257 262 267 268 265 259 251 245 242 240 238 233 229 223 216 212 216 222 223 225 227 225 222 224 226 227 228 231 234 237 239 241 246 247 245 243 243 243 243 244 246 250 256 259 257 258 258 256 254 252 252 253 253 256 263 267 267
258 256 253 250 250 251 251 255 259 260 260 257 249 241 236 236 237 237 234 231 225 218 215 218 222 224 226 227 228 229 229 230 232 235 238 243 246 246 245 246 246 244 242 241 241 239 240 246 254 255 253 252 251 249 249 250 251 253 254 257 263 269 271
262 257 255 253 251 252 252 252 253 253 252 249 244 238 235 236 238 237 234 233 231 226 216 215 220 222 224 227 228 230 231 231 235 239 242 245 248 249 247 246 246 244 241 239 237 235 237 245 251 254 253 249 243 243 246 247 247 249 252 256 262 269 275
268 266 270 269 264 261 260 257 255 254 253 249 243 238 235 235 236 234 228 224 223 222 219 218 219 222 227 229 227 227 230 233 238 244 247 248 249 250 249 249 249 246 241 237 233 232 237 243 248 253 253 249 246 249 249 248 249 251 253 255 259 267 276